Flag for Saudi Arabia Weather past 2 weeks in Riyadh, Saudi Arabia

Now
86 °F

Clear.


Feels Like: 83 °F
Forecast: 83 / 104 °F
Wind: No wind

Location: King Khaled International Airport

Current Time: May 28, 2015 at 1:39:09 AM

Latest Report: May 28, 2015 at 1:00 AM


Visibility: 6 mi

Pressure: 29.89 "Hg

Humidity: 15%

Dew point: 34 °F

Location of RiyadhLocation

Historic Weather in Riyadh — Graph

°F

Riyadh temperature yesterday

Maximum temperature yesterday: 106 °F (at 4:00 PM)
Minimum temperature yesterday: 77 °F (at 5:00 AM)
Average temperature yesterday: 93 °F

Past Weeks' High & Low Weather Summary

 TemperatureHumidityPressure
High109 °F (May 21, 2:00 PM)36% (May 27, 5:00 AM)30.07 "Hg (May 27, 5:00 AM)
Low75 °F (May 18, 5:00 AM)6% (May 21, 5:00 PM)29.74 "Hg (May 21, 6:00 PM)
Average93 °F14%29.90 "Hg
* Reported Midnight between May 12 and May 13 — Midnight between May 27 and May 28, Riyadh, Weather by CustomWeather, © 2015

Note: Actual official high and low records may vary slightly from our data, if they occured in-between our weather recording intervals... More about our weather records

Advertising

Riyadh weather history for previous 24 hours

 ConditionsComfort  
Time TempWeatherWind HumidityBarometerVisibility
12:00 AM
Thu, May 28
86 °FClear.No wind17%29.92 "Hg5 mi
11:00 PM
Wed, May 27
90 °FClear.3 mph14%29.92 "Hg5 mi
10:00 PM91 °FClear.3 mph13%29.92 "Hg5 mi
9:00 PM95 °FClear.6 mph12%29.92 "Hg5 mi
8:00 PM97 °FClear.7 mph12%29.92 "Hg5 mi
7:00 PM99 °FPassing clouds.7 mph11%29.89 "Hg5 mi
6:00 PM100 °FScattered clouds.7 mph10%29.89 "Hg5 mi
5:00 PM104 °FScattered clouds.8 mph9%29.89 "Hg5 mi
4:00 PM106 °FScattered clouds.10 mph11%29.89 "Hg6 mi
3:00 PM102 °FScattered clouds.8 mph11%29.89 "Hg6 mi
2:00 PM104 °FClear.8 mph11%29.92 "Hg6 mi
1:00 PM104 °FScattered clouds.10 mph11%29.92 "Hg5 mi
12:00 PM102 °FClear.6 mph13%29.95 "Hg6 mi
11:00 AM100 °FClear.6 mph14%29.98 "Hg6 mi
10:00 AM99 °FClear.6 mph14%29.98 "Hg6 mi
9:00 AM95 °FClear.5 mph19%29.98 "Hg5 mi
8:00 AM90 °FClear.3 mph24%29.98 "Hg4 mi
7:00 AM84 °FClear.3 mph29%29.98 "Hg4 mi
6:00 AM81 °FClear.5 mph32%29.95 "Hg4 mi
5:00 AM77 °FClear.No wind36%29.92 "Hg5 mi
4:00 AM81 °FClear.5 mph32%29.92 "Hg10 mi
3:00 AM82 °FClear.7 mph28%29.95 "Hg10 mi
2:00 AM82 °FClear.15 mph23%29.95 "Hg10 mi
1:00 AM84 °FClear.7 mph22%29.92 "Hg10 mi
Weather by CustomWeather, © 2015

See weather overviewHow to use our weather pages